[[{"header":{"parameterUnit":"m.s-1","parameterCategory":1,"la1":30.2991,"la2":30.254,"lo1":-89.0895,"lo2":-89.0444,"dy":0.0017,"dx":0.0017,"nx":28,"ny":28,"refTime":"2023-09-23T21:00:00:Z","depth":0,"parameterNumber":2,"parameterNumberName":"U-component_of_WINDS"},"data":[0,0,0,0,0,0,0,0,0,0,0,0,0,0,0,0,0,0,0,0,0,0,0,0,0,0,0,0,0,0,0,0,0,0,0,0,0,0,0,0,0,0,0,0,0,0,0,0,0,0,0,0,0,0,0,0,0,0,0.6582,0.6582,0,0.6532,0.6531,0.653,0.65,0.65,0.6499,0.6499,0.6447,0.6445,0.6444,0,0,0,0,0,0,0,0,0,0,0,0,0,0.665,0.6649,0.6582,0.6581,0.6581,0.6532,0.6531,0.653,0.65,0.65,0.6499,0.6499,0.6447,0.6446,0.6444,0,0,0,0,0,0,0,0,0,0,0,0,0,0.6612,0.6648,0.6582,0.656,0.6557,0.6532,0.6531,0.653,0.65,0.65,0.6499,0.6499,0.6448,0.6446,0.6444,0.6437,0,0,0.6438,0.6437,0,0,0,0,0,0,0,0,0.6614,0.6609,0.6564,0.6561,0.6558,0.6522,0.6535,0.6499,0.65,0.6522,0.6499,0.6499,0.6472,0.6468,0.6459,0.6434,0.6432,0.6438,0.6437,0.6436,0.6435,0,0,0,0,0,0,0,0.6617,0.6611,0.6562,0.6563,0.656,0.6551,0.6546,0.6528,0.6499,0.652,0.6517,0.6512,0.647,0.6461,0.6457,0.6431,0.6438,0.6436,0.6435,0.6434,0.6395,0.6395,0,0,0,0,0,0,0.6623,0.6614,0.6564,0.6561,0.6586,0.655,0.6544,0.6534,0.6499,0.6493,0.6512,0.6511,0.6464,0.646,0.6455,0.6443,0.6436,0.6434,0.6433,0.6395,0.6395,0.6395,0,0,0,0,0,0,0.6625,0.6619,0.6566,0.6586,0.6579,0.6549,0.6538,0.6533,0.6523,0.6493,0.6487,0.6508,0.6464,0.6458,0.6441,0.6441,0.6433,0.6432,0.6395,0.6395,0.6395,0.6419,0,0,0,0,0,0,0.6627,0.662,0.6617,0.6587,0.6578,0.6553,0.6538,0.6532,0.652,0.6518,0.6488,0.6482,0.6463,0.6444,0.6439,0.6438,0.643,0.6395,0.6395,0.6395,0.6418,0.642,0.6422,0,0,0,0,0,0.6629,0.6626,0.6618,0.6612,0.6575,0.6553,0.6548,0.6526,0.652,0.6517,0.6497,0.6483,0.6442,0.6443,0.6437,0.6435,0.6395,0.6395,0.6395,0.6417,0.642,0.6422,0,0,0,0,0,0,0.6658,0.6622,0.6612,0.6599,0.6579,0.6548,0.6544,0.653,0.6511,0.651,0.6483,0.6477,0.6462,0.6447,0.6448,0.6425,0.6416,0.6415,0.6435,0.6437,0.6439,0.6443,0.6429,0,0,0,0,0,0.6663,0.6649,0.6618,0.661,0.66,0.6574,0.6564,0.6548,0.6527,0.6518,0.6497,0.6476,0.6458,0.6447,0.6429,0.6416,0.6408,0.6411,0.6413,0.6415,0.6414,0.6404,0.6405,0.6396,0.6396,0.6396,0,0,0.6673,0.6652,0.6645,0.6615,0.6598,0.6583,0.6567,0.6553,0.6541,0.6516,0.6498,0.6482,0.6456,0.6441,0.6433,0.6428,0.6415,0.6415,0.6416,0.6415,0.6404,0.6405,0.6406,0.6396,0.6396,0.6396,0,0,0.6683,0.6667,0.6657,0.664,0.6614,0.6596,0.6593,0.6564,0.6552,0.6533,0.6514,0.6499,0.6469,0.6451,0.6438,0.6439,0.6425,0.6434,0.6443,0.6433,0.6434,0.6435,0.6434,0.6434,0.6434,0.6434,0.6434,0,0.6699,0.6677,0.6654,0.664,0.6626,0.6603,0.6592,0.6576,0.6546,0.6537,0.6531,0.6492,0.6473,0.6452,0.6452,0.6443,0.6438,0.6438,0.6436,0.6436,0.6436,0.6435,0.6435,0.6435,0.6435,0.6435,0.6435,0,0.6696,0.6681,0.6676,0.6647,0.6633,0.6621,0.6594,0.6583,0.6568,0.6551,0.6531,0.6508,0.6483,0.6477,0.6463,0.6453,0.6451,0.6441,0.6432,0.6439,0.6437,0.6436,0.6437,0.6436,0.6436,0.6436,0,0,0.6724,0.6681,0.668,0.6665,0.6634,0.6621,0.6607,0.6583,0.6573,0.6552,0.6539,0.6513,0.6503,0.6488,0.6472,0.6463,0.6464,0.6454,0.6453,0.6456,0.6449,0.6456,0.6456,0.6454,0.6454,0.6454,0.6451,0,0.6729,0.6703,0.6681,0.6663,0.6647,0.6623,0.661,0.6589,0.6572,0.6555,0.6535,0.6516,0.6506,0.6496,0.6487,0.6466,0.6462,0.6466,0.644,0.6439,0.6446,0.6455,0.6463,0.6462,0.645,0.645,0.645,0,0.6732,0.6711,0.6692,0.666,0.6653,0.6642,0.6617,0.6602,0.6577,0.6564,0.6547,0.6529,0.6511,0.6504,0.6478,0.6481,0.6469,0.6457,0.6456,0.6452,0.6445,0.6451,0.6461,0.6461,0.6449,0.6449,0.6449,0,0.6753,0.672,0.6704,0.6692,0.6656,0.6648,0.6632,0.6607,0.6593,0.6571,0.6562,0.6538,0.6525,0.6506,0.6482,0.6479,0.6458,0.6449,0.6446,0.6447,0.6443,0.6444,0.645,0.6437,0.6437,0.6437,0.6437,0,0.676,0.6748,0.6712,0.6702,0.6688,0.6661,0.6648,0.663,0.6607,0.6592,0.657,0.6556,0.6525,0.6507,0.6488,0.6468,0.6463,0.6451,0.6446,0.6453,0.6454,0.6444,0.6443,0.6436,0.6436,0.6437,0.6437,0,0.6781,0.6756,0.6736,0.6703,0.6694,0.6685,0.6655,0.6644,0.6624,0.6605,0.6599,0.6568,0.6546,0.652,0.6489,0.6475,0.6457,0.645,0.6466,0.6463,0.6461,0.6461,0.6461,0.6459,0.6448,0.6448,0.6448,0,0.6787,0.6777,0.6742,0.6731,0.6715,0.6697,0.6683,0.6656,0.6642,0.6611,0.6603,0.6579,0.6558,0.6522,0.6496,0.6472,0.6464,0.6465,0.646,0.6466,0.6462,0.6463,0.6461,0.6467,0.6467,0.6467,0.6467,0,0.68,0.6787,0.6768,0.6744,0.6728,0.6707,0.6686,0.6677,0.6646,0.6631,0.6607,0.6591,0.6559,0.6534,0.6506,0.6488,0.6472,0.6469,0.6467,0.6473,0.6482,0.6476,0.6469,0.6469,0.6469,0.6469,0.6469,0.6469,0.6812,0.6802,0.6775,0.6754,0.6735,0.6715,0.6702,0.668,0.6661,0.6632,0.6617,0.6594,0.6566,0.6527,0.651,0.649,0.6485,0.6482,0.6481,0.648,0.6482,0.6486,0.6485,0.6485,0.6485,0.6485,0.6484,0,0.6823,0.6804,0.6785,0.6755,0.6738,0.6724,0.67,0.6686,0.6665,0.6642,0.6621,0.6593,0.6568,0.654,0.6514,0.6503,0.6495,0.6497,0.6497,0.6493,0.6489,0.6493,0.6504,0.6504,0.6504,0.6504,0.6504,0.6504,0.6826,0.6807,0.6792,0.6763,0.6744,0.6721,0.6708,0.6689,0.6669,0.6639,0.6619,0.6601,0.6574,0.6545,0.6522,0.6514,0.6505,0.6509,0.6499,0.6495,0.6493,0.6492,0.6496,0.6507,0.6507,0.6504,0.6504,0.6504]},{"header":{"parameterUnit":"m.s-1","parameterCategory":1,"la1":30.2991,"la2":30.254,"lo1":-89.0895,"lo2":-89.0444,"dy":0.0017,"dx":0.0017,"nx":28,"ny":28,"refTime":"2023-09-23T21:00:00:Z","depth":0,"parameterNumber":3,"parameterNumberName":"V-component_of_WINDS"},"data":[0,0,0,0,0,0,0,0,0,0,0,0,0,0,0,0,0,0,0,0,0,0,0,0,0,0,0,0,0,0,0,0,0,0,0,0,0,0,0,0,0,0,0,0,0,0,0,0,0,0,0,0,0,0,0,0,0,0,4.3782,4.3782,0,4.3766,4.3766,4.3765,4.3706,4.3705,4.3704,4.3702,4.3686,4.3687,4.3688,0,0,0,0,0,0,0,0,0,0,0,0,0,4.3763,4.3764,4.3782,4.3782,4.3782,4.3766,4.3766,4.3765,4.3707,4.3705,4.3703,4.3702,4.3686,4.3687,4.3688,0,0,0,0,0,0,0,0,0,0,0,0,0,4.3761,4.3764,4.3782,4.3751,4.3748,4.3766,4.3766,4.3765,4.3707,4.3705,4.3703,4.3701,4.3686,4.3687,4.3688,4.3736,0,0,4.3692,4.3693,0,0,0,0,0,0,0,0,4.3762,4.3762,4.3755,4.3753,4.3749,4.3736,4.3753,4.3756,4.3707,4.3722,4.3702,4.37,4.3705,4.3704,4.3706,4.3735,4.3735,4.3692,4.3693,4.3693,4.3694,0,0,0,0,0,0,0,4.3762,4.3763,4.3776,4.3755,4.3752,4.3737,4.3735,4.3753,4.3725,4.3721,4.3717,4.3715,4.3703,4.3705,4.3705,4.3735,4.3692,4.3693,4.3694,4.3694,4.3802,4.3804,0,0,0,0,0,0,4.3766,4.3763,4.3776,4.3775,4.3751,4.3739,4.3736,4.3742,4.3725,4.372,4.3717,4.3713,4.3703,4.3703,4.3704,4.3758,4.3693,4.3695,4.3695,4.38,4.3802,4.3804,0,0,0,0,0,0,4.3766,4.3768,4.3777,4.3768,4.3768,4.3742,4.3749,4.3743,4.3745,4.3722,4.3717,4.3724,4.3702,4.3702,4.3728,4.3756,4.3695,4.3696,4.3797,4.38,4.3803,4.3867,0,0,0,0,0,0,4.3766,4.3768,4.3786,4.3769,4.3769,4.3802,4.3751,4.3744,4.3747,4.3741,4.3727,4.3723,4.37,4.3727,4.373,4.3757,4.3697,4.3794,4.3799,4.3802,4.3862,4.3872,4.388,0,0,0,0,0,4.3765,4.3805,4.3787,4.3789,4.3791,4.3803,4.3803,4.3776,4.375,4.3767,4.3752,4.3723,4.3753,4.373,4.3733,4.3761,4.3793,4.3797,4.3802,4.3858,4.387,4.388,0,0,0,0,0,0,4.3827,4.3802,4.3782,4.3818,4.3813,4.3793,4.3815,4.379,4.3793,4.3787,4.3754,4.3751,4.3782,4.3774,4.3749,4.3806,4.3768,4.3773,4.3809,4.3821,4.3829,4.383,4.3698,0,0,0,0,0,4.3845,4.3857,4.3835,4.3868,4.3867,4.3842,4.3846,4.3826,4.382,4.3817,4.3804,4.38,4.3808,4.3814,4.382,4.3861,4.3856,4.3882,4.3891,4.3898,4.3903,4.3923,4.3933,4.382,4.382,4.382,0,0,4.3882,4.387,4.388,4.3881,4.3874,4.3888,4.384,4.3857,4.3866,4.382,4.3843,4.3834,4.3826,4.3859,4.3873,4.3854,4.3933,4.3904,4.391,4.3911,4.3928,4.3939,4.3949,4.3823,4.3823,4.3822,0,0,4.3955,4.3948,4.3974,4.3969,4.396,4.3943,4.3949,4.3933,4.3925,4.3948,4.3913,4.3924,4.3939,4.3935,4.3935,4.4006,4.3979,4.4009,4.4056,4.4075,4.4084,4.4092,4.4116,4.4126,4.4014,4.4015,4.4015,0,4.4002,4.402,4.3991,4.4009,4.401,4.3969,4.3995,4.3991,4.3985,4.3987,4.3965,4.3983,4.3975,4.4006,4.4023,4.4025,4.4031,4.401,4.4085,4.4093,4.41,4.4122,4.4132,4.4018,4.4018,4.4017,4.4017,0,4.4078,4.4091,4.4114,4.4108,4.4112,4.4134,4.4108,4.4115,4.4095,4.408,4.4103,4.4092,4.4095,4.4101,4.4082,4.4129,4.4117,4.4091,4.4052,4.4114,4.4135,4.4144,4.4023,4.4022,4.4021,4.402,0,0,4.4189,4.4167,4.4175,4.4172,4.4159,4.4169,4.4189,4.4191,4.4198,4.4195,4.4211,4.4225,4.42,4.42,4.4179,4.4197,4.4252,4.4168,4.4167,4.4183,4.4303,4.4322,4.4333,4.4235,4.4237,4.4238,4.4303,0,4.4258,4.4291,4.4265,4.4302,4.4313,4.4274,4.4292,4.4286,4.4272,4.428,4.4266,4.4275,4.4242,4.4242,4.4257,4.4242,4.4276,4.4238,4.4249,4.4249,4.425,4.4344,4.4364,4.4426,4.4311,4.4313,4.4314,0,4.4343,4.4343,4.4381,4.4365,4.4369,4.4385,4.4384,4.4393,4.4385,4.4374,4.4374,4.4348,4.4367,4.433,4.4354,4.4329,4.4332,4.4325,4.4327,4.4326,4.4285,4.4344,4.4446,4.4455,4.4327,4.4326,4.4325,0,4.4419,4.4429,4.4453,4.4451,4.4433,4.4445,4.4438,4.4428,4.4431,4.4431,4.4432,4.4435,4.4436,4.4438,4.4414,4.439,4.4442,4.4403,4.4432,4.4433,4.4444,4.4444,4.4547,4.4449,4.4449,4.4448,4.4448,0,4.4497,4.4522,4.4486,4.4501,4.4527,4.4497,4.4524,4.4513,4.4505,4.4516,4.4483,4.4495,4.4463,4.4471,4.4453,4.4475,4.4477,4.4468,4.4462,4.447,4.4471,4.4471,4.4465,4.4451,4.445,4.445,4.4449,0,4.4586,4.4563,4.4587,4.4567,4.4563,4.4583,4.4567,4.4579,4.4564,4.4579,4.4581,4.4556,4.4564,4.4541,4.4545,4.4533,4.4565,4.4553,4.4568,4.4564,4.4594,4.4591,4.47,4.4712,4.4607,4.4608,4.4609,0,4.4638,4.4655,4.4638,4.4643,4.4638,4.4647,4.4649,4.462,4.4624,4.4616,4.463,4.4635,4.4637,4.4652,4.4635,4.4638,4.4625,4.4663,4.4625,4.4632,4.4624,4.4623,4.4624,4.467,4.4672,4.4673,4.4674,0,4.4731,4.4718,4.4723,4.4723,4.4727,4.4726,4.4723,4.4729,4.4698,4.4704,4.4711,4.4714,4.4718,4.4723,4.4722,4.4715,4.4689,4.4686,4.4692,4.47,4.4707,4.4702,4.4588,4.4683,4.4682,4.4681,4.4681,4.4681,4.4801,4.4815,4.4804,4.481,4.4805,4.4802,4.4813,4.4798,4.4804,4.4804,4.4787,4.4798,4.4789,4.4786,4.4781,4.4789,4.4772,4.4782,4.4784,4.4787,4.4792,4.4707,4.4789,4.4789,4.4789,4.4788,4.4788,0,4.4891,4.4882,4.4888,4.4884,4.4889,4.4864,4.4859,4.4864,4.4874,4.4868,4.4871,4.4879,4.4884,4.4867,4.487,4.4879,4.4867,4.4881,4.4879,4.4878,4.4808,4.4801,4.489,4.489,4.489,4.489,4.489,4.489,4.4939,4.496,4.4946,4.4964,4.4955,4.4965,4.4964,4.4962,4.4956,4.4967,4.4971,4.4959,4.4949,4.495,4.4953,4.4948,4.495,4.4968,4.4958,4.4893,4.4883,4.4873,4.4867,4.4969,4.4969,4.5027,4.5028,4.5028]}]]